FW7828 Weather Reports


time (UTC)temp
C
wind
direction
speed
KPH
gust
KPH
rain 1hr
cm
rain 24hr
cm
rain mn
cm
humidity
%
barometer
mb
20260902092648 25 345 0.0 1.6 0.00 0.00 0.00 91 1015.4
20260902092143 25 187 0.0 0.0 0.00 0.00 0.00 91 1015.5
20260902091637 25 291 0.0 0.0 0.00 0.00 0.00 90 1015.5
20260902091134 25 98 1.6 1.6 0.00 0.00 0.00 91 1015.4
20260902090630 25 243 1.6 1.6 0.00 0.00 0.00 91 1015.3
20260902090129 25 123 1.6 1.6 0.00 0.00 0.00 91 1015.5
20260902085624 25 264 0.0 0.0 0.00 0.00 0.00 91 1015.6
20260902085119 25 232 0.0 1.6 0.00 0.00 0.00 91 1015.4
20260902084615 25 283 0.0 1.6 0.00 0.00 0.00 91 1015.4
20260902084110 25 331 0.0 0.0 0.00 0.00 0.00 91 1015.3
20260902083606 25 231 0.0 0.0 0.00 0.00 0.00 90 1015.3
20260902083105 25 252 0.0 0.0 0.00 0.00 0.00 90 1015.4
20260902082601 25 335 0.0 1.6 0.00 0.00 0.00 90 1015.2
20260902082057 25 40 0.0 0.0 0.00 0.00 0.00 90 1015.3
20260902081554 25 350 0.0 0.0 0.00 0.00 0.00 90 1015.4
20260902081053 25 280 1.6 1.6 0.00 0.00 0.00 90 1015.2
20260902080548 25 294 0.0 0.0 0.00 0.00 0.00 90 1015.3
20260902080045 25 294 0.0 1.6 0.00 0.00 0.00 90 1015.6
20260902075544 25 238 1.6 1.6 0.00 0.00 0.00 90 1015.5
20260902075041 25 283 0.0 1.6 0.00 0.00 0.00 90 1015.5
20260902074536 25 276 0.0 0.0 0.00 0.00 0.00 90 1015.2
20260902074031 25 345 0.0 0.0 0.00 0.00 0.00 90 1015.4
20260902073526 25 301 0.0 0.0 0.00 0.00 0.00 90 1015.3
20260902073023 25 340 1.6 1.6 0.00 0.00 0.00 89 1015.4
20260902072518 25 353 0.0 0.0 0.00 0.00 0.00 89 1015.7
20260902072015 25 354 0.0 0.0 0.00 0.00 0.00 89 1015.4
20260902071514 25 256 1.6 1.6 0.00 0.00 0.00 89 1015.6
20260902071010 25 336 1.6 1.6 0.00 0.00 0.00 89 1015.5
20260902070506 25 40 0.0 0.0 0.00 0.00 0.00 90 1015.6
20260902070007 25 292 1.6 1.6 0.00 0.00 0.00 90 1015.9
20260902065500 25 57 0.0 0.0 0.00 0.00 0.00 89 1015.7
20260902064955 25 346 0.0 0.0 0.00 0.00 0.00 89 1015.6
20260902064450 25 222 0.0 1.6 0.00 0.00 0.00 89 1015.9
20260902063946 25 265 1.6 1.6 0.00 0.00 0.00 89 1015.7
20260902063445 25 345 0.0 0.0 0.00 0.00 0.00 89 1015.7
20260902062941 25 73 1.6 3.2 0.00 0.00 0.00 89 1015.7
20260902062440 25 182 1.6 1.6 0.00 0.00 0.00 89 1015.9
20260902061935 25 284 0.0 0.0 0.00 0.00 0.00 90 1015.8
20260902061430 25 285 1.6 1.6 0.00 0.00 0.00 89 1015.8
20260902060926 25 338 0.0 0.0 0.00 0.00 0.00 89 1016.0
20260902060422 25 322 0.0 0.0 0.00 0.00 0.00 89 1016.0
20260902055918 25 7 1.6 1.6 0.00 0.00 0.00 88 1016.2
20260902055414 26 289 0.0 0.0 0.00 0.00 0.00 88 1015.8
20260902054909 26 288 0.0 1.6 0.00 0.00 0.00 87 1015.9
20260902054404 26 352 0.0 0.0 0.00 0.00 0.00 88 1015.9
20260902053859 26 177 3.2 3.2 0.00 0.00 0.00 88 1016.1
20260902053354 26 270 0.0 0.0 0.00 0.00 0.00 89 1016.0
20260902052853 25 295 0.0 0.0 0.00 0.00 0.00 89 1016.1
20260902052349 26 352 0.0 0.0 0.00 0.00 0.00 88 1016.1
20260902051844 26 286 0.0 1.6 0.00 0.00 0.00 88 1016.1
20260902051343 26 3 0.0 0.0 0.00 0.00 0.00 89 1016.0
20260902050837 25 6 0.0 1.6 0.00 0.00 0.00 88 1016.0
20260902050331 26 354 0.0 0.0 0.00 0.00 0.00 88 1015.9
20260902045826 26 358 0.0 1.6 0.00 0.00 0.00 87 1016.1
20260902045322 26 351 0.0 0.0 0.00 0.00 0.00 87 1016.0
20260902044819 26 13 0.0 1.6 0.00 0.00 0.00 87 1016.0
20260902044314 26 49 1.6 1.6 0.00 0.00 0.00 87 1015.9
20260902043814 26 281 1.6 1.6 0.00 0.00 0.00 87 1015.8
20260902043309 26 339 1.6 1.6 0.00 0.00 0.00 86 1015.7
20260902042809 26 270 1.6 1.6 0.00 0.00 0.00 86 1015.6
20260902042308 26 178 1.6 3.2 0.00 0.00 0.00 86 1015.5
20260902041759 26 319 0.0 0.0 0.00 0.00 0.00 86 1015.5
20260902041259 26 4 0.0 0.0 0.00 0.00 0.00 86 1015.2
20260902040758 26 147 1.6 3.2 0.00 0.00 0.00 85 1015.5
20260902040254 27 345 1.6 1.6 0.00 0.00 0.00 84 1015.5
20260902035752 26 186 4.8 4.8 0.00 0.00 0.00 84 1015.2
20260902035248 26 72 1.6 1.6 0.00 0.00 0.00 85 1015.3
20260902034746 26 14 0.0 0.0 0.00 0.00 0.00 86 1015.1
20260902034242 26 218 0.0 1.6 0.00 0.00 0.00 85 1015.3
20260902033739 26 259 0.0 0.0 0.00 0.00 0.00 86 1015.4
20260902033235 26 334 0.0 0.0 0.00 0.00 0.00 86 1015.3
20260902032733 26 126 0.0 0.0 0.00 0.00 0.00 85 1015.6
20260902032228 27 22 0.0 0.0 0.00 0.00 0.00 86 1015.4
20260902031723 27 192 3.2 8.0 0.00 0.00 0.00 84 1015.5
20260902031219 27 64 0.0 0.0 0.00 0.00 0.00 86 1015.5
20260902030714 27 102 1.6 1.6 0.00 0.00 0.00 85 1015.2
20260902030213 27 320 0.0 0.0 0.00 0.00 0.00 86 1015.2
20260902025713 27 256 1.6 1.6 0.00 0.00 0.00 86 1015.3
20260902025208 27 296 0.0 0.0 0.00 0.00 0.00 87 1015.1
20260902024703 27 346 0.0 0.0 0.00 0.00 0.00 86 1015.2
20260902024158 27 31 3.2 3.2 0.00 0.00 0.00 86 1015.1
20260902023654 27 197 4.8 4.8 0.00 0.00 0.00 86 1015.1
20260902023149 27 248 0.0 0.0 0.00 0.00 0.00 86 1015.1
20260902022648 27 195 4.8 4.8 0.00 0.00 0.00 86 1015.0
20260902022144 27 322 0.0 0.0 0.00 0.00 0.00 87 1015.3
20260902021639 27 11 0.0 1.6 0.00 0.00 0.00 87 1015.2
20260902021134 27 159 0.0 0.0 0.00 0.00 0.00 88 1015.0
20260902020631 27 350 0.0 0.0 0.00 0.00 0.00 88 1014.9
20260902020126 27 274 1.6 1.6 0.00 0.00 0.00 87 1014.9
20260902015621 27 291 0.0 0.0 0.00 0.00 0.00 86 1014.9
20260902015118 28 29 0.0 1.6 0.00 0.00 0.00 86 1014.6
20260902014613 28 221 0.0 0.0 0.00 0.00 0.00 86 1014.8
20260902014108 28 171 1.6 3.2 0.00 0.00 0.00 85 1014.5
20260902013608 28 179 4.8 4.8 0.00 0.00 0.00 86 1014.4
20260902013104 28 275 1.6 1.6 0.00 0.00 0.00 86 1014.5
20260902012559 28 197 1.6 1.6 0.00 0.00 0.00 86 1014.2
20260902012054 28 232 1.6 1.6 0.00 0.00 0.00 86 1014.5
20260902011550 28 212 1.6 3.2 0.00 0.00 0.00 86 1014.4
20260902011049 28 205 1.6 1.6 0.00 0.00 0.00 86 1014.4
20260902010548 28 220 3.2 4.8 0.00 0.00 0.00 85 1014.4
20260902010045 28 222 1.6 3.2 0.00 0.00 0.00 85 1014.4
20260902005542 28 164 6.4 8.0 0.00 0.00 0.00 86 1014.2
20260902005039 28 184 4.8 8.0 0.00 0.00 0.00 86 1014.1
20260902004538 28 178 1.6 3.2 0.00 0.00 0.00 85 1014.3
20260902004033 28 212 3.2 4.8 0.00 0.00 0.00 85 1014.5
20260902003528 28 172 4.8 4.8 0.00 0.00 0.00 86 1014.1
20260902003024 28 215 3.2 3.2 0.00 0.00 0.00 86 1014.2
20260902002520 28 179 3.2 3.2 0.00 0.00 0.00 85 1014.1
20260902002014 28 201 1.6 1.6 0.00 0.00 0.00 85 1014.4
20260902001509 28 254 0.0 1.6 0.00 0.00 0.00 84 1014.2
20260902001004 29 141 3.2 3.2 0.00 0.00 0.00 84 1014.2
20260902000459 29 146 4.8 4.8 0.00 0.00 0.00 84 1014.0
20260901235954 29 241 3.2 3.2 0.00 0.00 0.00 84 1014.0
20260901235449 29 189 4.8 4.8 0.00 0.00 0.00 83 1014.3
20260901234944 29 180 3.2 4.8 0.00 0.00 0.00 83 1014.1
20260901234437 30 212 1.6 1.6 0.00 0.00 0.00 82 1014.3
20260901233933 30 211 1.6 1.6 0.00 0.00 0.00 81 1014.1
20260901233428 30 198 3.2 3.2 0.00 0.00 0.00 80 1014.1
20260901232925 30 216 4.8 4.8 0.00 0.00 0.00 80 1014.1
20260901232424 30 228 0.0 1.6 0.00 0.00 0.00 78 1014.2
20260901231920 30 169 4.8 8.0 0.00 0.00 0.00 79 1014.4
20260901231416 30 175 4.8 4.8 0.00 0.00 0.00 78 1014.5
20260901230913 30 185 1.6 1.6 0.00 0.00 0.00 79 1014.4
20260901230412 30 200 1.6 1.6 0.00 0.00 0.00 79 1014.4
20260901225907 31 167 3.2 3.2 0.00 0.00 0.00 77 1014.6
20260901225406 31 211 6.4 8.0 0.00 0.00 0.00 78 1014.4
20260901224901 31 198 1.6 1.6 0.00 0.00 0.00 77 1014.6
20260901224358 31 191 3.2 4.8 0.00 0.00 0.00 79 1014.6
20260901223854 30 192 1.6 3.2 0.00 0.00 0.00 79 1014.6
20260901223349 29 179 0.0 1.6 0.00 0.00 0.00 85 1014.6
20260901222845 29 352 0.0 0.0 0.00 0.00 0.00 85 1014.7
20260901222341 29 348 0.0 0.0 0.00 0.00 0.00 85 1014.5
20260901221837 29 5 0.0 0.0 0.00 0.00 0.00 85 1014.4
20260901221332 29 5 0.0 0.0 0.00 0.00 0.00 85 1014.7
20260901220831 29 6 0.0 0.0 0.00 0.00 0.00 85 1014.7
20260901220331 29 12 0.0 0.0 0.00 0.00 0.00 85 1014.3
20260901215830 30 353 1.6 1.6 0.00 0.00 0.00 85 1014.4
20260901215329 30 347 0.0 0.0 0.00 0.00 0.00 84 1014.8
20260901214828 30 332 0.0 0.0 0.00 0.00 0.00 84 1014.7
20260901214327 30 340 0.0 0.0 0.00 0.00 0.00 83 1014.5
20260901213822 30 340 0.0 0.0 0.00 0.00 0.00 83 1014.7
20260901213322 31 340 0.0 0.0 0.00 0.00 0.00 81 1014.5
20260901212816 31 345 0.0 0.0 0.00 0.00 0.00 81 1014.5
20260901212312 31 344 0.0 0.0 0.00 0.00 0.00 81 1014.4
20260901211807 31 319 1.6 1.6 0.00 0.00 0.00 78 1014.4
20260901211304 31 337 0.0 0.0 0.00 0.00 0.00 79 1014.3
20260901210759 31 351 0.0 0.0 0.00 0.00 0.00 77 1014.4
20260901210254 32 5 0.0 0.0 0.00 0.00 0.00 75 1014.2
20260901205750 32 272 0.0 0.0 0.00 0.00 0.00 75 1014.4
20260901205250 32 143 0.0 0.0 0.00 0.00 0.00 70 1014.5
20260901204746 33 358 0.0 0.0 0.00 0.00 0.00 74 1014.6
20260901204242 33 4 0.0 0.0 0.00 0.00 0.00 71 1014.6
20260901203737 33 209 0.0 1.6 0.00 0.00 0.00 68 1014.5
20260901203236 35 136 1.6 3.2 0.00 0.00 0.00 61 1014.4
20260901202736 35 266 0.0 0.0 0.00 0.00 0.00 64 1014.8
20260901202232 35 268 0.0 0.0 0.00 0.00 0.00 63 1014.6
20260901201727 35 264 0.0 0.0 0.00 0.00 0.00 63 1014.6
20260901201227 35 246 0.0 0.0 0.00 0.00 0.00 64 1014.8
20260901200726 34 197 1.6 1.6 0.00 0.00 0.00 62 1014.7
20260901200222 35 270 0.0 1.6 0.00 0.00 0.00 60 1014.8
20260901195719 34 189 1.6 1.6 0.00 0.00 0.00 62 1015.0
20260901195213 34 259 1.6 1.6 0.00 0.00 0.00 65 1014.9
20260901194710 34 211 0.0 1.6 0.00 0.00 0.00 62 1015.0
20260901194204 34 123 1.6 1.6 0.00 0.00 0.00 63 1014.9
20260901193701 33 114 1.6 3.2 0.00 0.00 0.00 62 1014.8
20260901193154 34 109 1.6 1.6 0.00 0.00 0.00 63 1015.1
20260901192649 33 183 3.2 3.2 0.00 0.00 0.00 63 1015.1
20260901192144 34 169 3.2 3.2 0.00 0.00 0.00 63 1015.1
20260901191640 34 183 1.6 1.6 0.00 0.00 0.00 62 1015.0
20260901191136 34 150 0.0 0.0 0.00 0.00 0.00 62 1015.0
20260901190631 33 139 1.6 3.2 0.00 0.00 0.00 64 1015.3
20260901190131 33 115 1.6 1.6 0.00 0.00 0.00 65 1015.1
20260901185629 33 178 1.6 1.6 0.00 0.00 0.00 63 1015.3
20260901185128 33 114 3.2 3.2 0.00 0.00 0.00 63 1015.4
20260901184624 33 165 3.2 3.2 0.00 0.00 0.00 64 1015.4
20260901184119 33 104 0.0 0.0 0.00 0.00 0.00 64 1015.5
20260901183614 33 234 1.6 1.6 0.00 0.00 0.00 62 1015.3
20260901183109 33 355 1.6 1.6 0.00 0.00 0.00 63 1015.5
20260901182606 33 112 1.6 3.2 0.00 0.00 0.00 61 1015.5
20260901182105 33 154 0.0 1.6 0.00 0.00 0.00 63 1015.4
20260901181604 33 121 1.6 1.6 0.00 0.00 0.00 64 1015.6
20260901181058 32 117 1.6 1.6 0.00 0.00 0.00 66 1015.5
20260901180557 32 85 0.0 0.0 0.00 0.00 0.00 64 1015.5
20260901180052 32 157 3.2 3.2 0.00 0.00 0.00 66 1015.5
20260901175546 32 184 3.2 3.2 0.00 0.00 0.00 67 1015.6
20260901175046 32 194 4.8 4.8 0.00 0.00 0.00 66 1015.6
20260901174541 32 129 4.8 4.8 0.00 0.00 0.00 63 1015.5
20260901174037 32 124 3.2 3.2 0.00 0.00 0.00 64 1015.8
20260901173532 32 202 3.2 4.8 0.00 0.00 0.00 67 1016.0
20260901173028 32 177 4.8 4.8 0.00 0.00 0.00 69 1015.7
20260901172524 32 164 3.2 3.2 0.00 0.00 0.00 70 1016.1
20260901172021 32 181 3.2 3.2 0.00 0.00 0.00 70 1015.9
20260901171521 32 187 3.2 3.2 0.00 0.00 0.00 70 1015.9
20260901171020 32 121 1.6 3.2 0.00 0.00 0.00 69 1016.0
20260901170515 32 169 0.0 1.6 0.00 0.00 0.00 71 1015.9
20260901170015 31 159 1.6 1.6 0.00 0.00 0.00 70 1016.1
20260901165509 31 147 3.2 3.2 0.00 0.00 0.00 70 1016.0
20260901165005 32 158 3.2 3.2 0.00 0.00 0.00 68 1016.1
20260901164500 31 180 1.6 3.2 0.00 0.00 0.00 71 1016.1
20260901163954 31 157 4.8 4.8 0.00 0.00 0.00 71 1016.0
20260901163450 32 176 3.2 3.2 0.00 0.00 0.00 69 1016.3
20260901162949 31 21 0.0 0.0 0.00 0.00 0.00 70 1016.3
20260901162444 31 138 1.6 1.6 0.00 0.00 0.00 70 1016.2
20260901161943 31 169 3.2 3.2 0.00 0.00 0.00 71 1016.5
20260901161443 31 98 1.6 3.2 0.00 0.00 0.00 70 1016.4
20260901160938 31 179 4.8 4.8 0.00 0.00 0.00 70 1016.6
20260901160434 31 175 4.8 4.8 0.00 0.00 0.00 70 1016.5
20260901155932 31 204 4.8 4.8 0.00 0.00 0.00 69 1016.6
20260901155427 31 172 4.8 4.8 0.00 0.00 0.00 70 1016.6
20260901154924 31 168 4.8 8.0 0.00 0.00 0.00 70 1016.8
20260901154423 31 158 3.2 3.2 0.00 0.00 0.00 72 1016.9
20260901153918 31 166 3.2 3.2 0.00 0.00 0.00 72 1017.0
20260901153417 31 135 1.6 3.2 0.00 0.00 0.00 72 1016.9
20260901152912 30 89 1.6 3.2 0.00 0.00 0.00 73 1017.1
20260901152407 30 167 3.2 3.2 0.00 0.00 0.00 73 1017.1
20260901151907 30 95 4.8 4.8 0.00 0.00 0.00 75 1017.2
20260901151407 30 106 4.8 4.8 0.00 0.00 0.00 76 1017.3
20260901150906 30 135 3.2 4.8 0.00 0.00 0.00 77 1017.2
20260901150404 29 125 4.8 8.0 0.00 0.00 0.00 77 1017.1
20260901145901 29 103 3.2 3.2 0.00 0.00 0.00 78 1017.4
20260901145356 29 180 1.6 3.2 0.00 0.00 0.00 79 1017.2
20260901144851 28 158 3.2 4.8 0.00 0.00 0.00 79 1017.2
20260901144347 28 178 1.6 3.2 0.00 0.00 0.00 82 1017.4
20260901143843 28 112 1.6 1.6 0.00 0.00 0.00 83 1017.2
20260901143338 28 151 3.2 3.2 0.00 0.00 0.00 85 1017.1
20260901142835 28 123 1.6 3.2 0.00 0.00 0.00 84 1017.2
20260901142333 28 157 3.2 3.2 0.00 0.00 0.00 84 1017.0
20260901141828 27 152 3.2 3.2 0.00 0.00 0.00 84 1017.0
20260901141323 28 159 1.6 3.2 0.00 0.00 0.00 85 1016.9
20260901140822 27 167 3.2 3.2 0.00 0.00 0.00 85 1017.0
20260901140315 27 49 1.6 1.6 0.00 0.00 0.00 86 1017.2
20260901135811 27 100 3.2 3.2 0.00 0.00 0.00 85 1016.9
20260901135310 27 178 1.6 1.6 0.00 0.00 0.00 85 1017.0
20260901134807 27 176 1.6 3.2 0.00 0.00 0.00 86 1017.2
20260901134307 27 159 3.2 3.2 0.00 0.00 0.00 86 1017.0
20260901133801 27 87 3.2 3.2 0.00 0.00 0.00 85 1017.2
20260901133300 27 159 4.8 4.8 0.00 0.00 0.00 85 1017.3
20260901132758 28 155 1.6 3.2 0.00 0.00 0.00 84 1017.4
20260901132254 27 129 3.2 3.2 0.00 0.00 0.00 85 1017.1
20260901131749 27 249 1.6 1.6 0.00 0.00 0.00 85 1017.2
20260901131248 27 163 3.2 4.8 0.00 0.00 0.00 85 1017.2
20260901130743 28 120 3.2 3.2 0.00 0.00 0.00 84 1017.2
20260901130242 27 139 3.2 3.2 0.00 0.00 0.00 84 1017.0
20260901125740 27 38 0.0 0.0 0.00 0.00 0.00 85 1017.3
20260901125230 27 137 1.6 1.6 0.00 0.00 0.00 86 1017.1
20260901124730 26 159 1.6 1.6 0.00 0.00 0.00 87 1017.2
20260901124224 26 17 0.0 0.0 0.00 0.00 0.00 87 1017.1
20260901123718 26 355 1.6 1.6 0.00 0.00 0.00 89 1017.0
20260901123214 26 281 0.0 0.0 0.00 0.00 0.00 89 1017.1
20260901122712 26 106 0.0 0.0 0.00 0.00 0.00 89 1017.2
20260901122207 26 7 0.0 0.0 0.00 0.00 0.00 90 1016.9
20260901121701 25 170 4.8 8.0 0.00 0.00 0.00 90 1017.0
20260901121157 25 92 0.0 0.0 0.00 0.00 0.00 92 1016.9
20260901120656 25 189 3.2 3.2 0.00 0.00 0.00 92 1016.8
20260901120151 25 125 0.0 0.0 0.00 0.00 0.00 92 1016.8
20260901115647 25 217 0.0 0.0 0.00 0.00 0.00 93 1016.9
20260901115143 25 251 0.0 0.0 0.00 0.00 0.00 93 1017.0
20260901114639 25 179 0.0 0.0 0.00 0.00 0.00 93 1016.6
20260901114139 25 105 0.0 0.0 0.00 0.00 0.00 93 1016.9
20260901113638 25 110 0.0 0.0 0.00 0.00 0.00 94 1016.8
20260901113133 25 214 1.6 3.2 0.00 0.00 0.00 94 1016.5
20260901112633 25 277 0.0 0.0 0.00 0.00 0.00 95 1016.5
20260901112127 24 143 0.0 1.6 0.00 0.00 0.00 95 1016.4
20260901111626 24 87 0.0 0.0 0.00 0.00 0.00 95 1016.5
20260901111125 24 107 0.0 0.0 0.00 0.00 0.00 95 1016.0
20260901110621 24 64 0.0 0.0 0.00 0.00 0.00 95 1016.4
20260901110116 24 28 0.0 0.0 0.00 0.00 0.00 95 1016.4
20260901105613 24 130 0.0 0.0 0.00 0.00 0.00 95 1016.2
20260901105112 24 348 0.0 0.0 0.00 0.00 0.00 95 1016.4
20260901104608 24 355 0.0 0.0 0.00 0.00 0.00 95 1016.2
20260901104103 24 358 0.0 0.0 0.00 0.00 0.00 95 1016.3
20260901103557 24 124 0.0 0.0 0.00 0.00 0.00 95 1016.1
20260901103053 24 237 3.2 3.2 0.00 0.00 0.00 95 1016.1
20260901102552 24 315 0.0 0.0 0.00 0.00 0.00 95 1016.3
20260901102047 24 304 0.0 0.0 0.00 0.00 0.00 95 1016.2
20260901101543 24 318 0.0 0.0 0.00 0.00 0.00 95 1016.2
20260901101042 24 323 0.0 0.0 0.00 0.00 0.00 95 1016.2
20260901100537 24 322 0.0 0.0 0.00 0.00 0.00 95 1016.4
20260901100036 24 337 0.0 0.0 0.00 0.00 0.00 95 1016.1
20260901095535 24 342 0.0 0.0 0.00 0.00 0.00 94 1016.2
20260901095033 24 339 0.0 0.0 0.00 0.00 0.00 94 1016.3
20260901094528 24 342 0.0 0.0 0.00 0.00 0.00 94 1016.2
20260901094027 24 342 0.0 0.0 0.00 0.00 0.00 94 1016.1
20260901093522 24 264 0.0 0.0 0.00 0.00 0.00 94 1016.2